Regional Weather Roundup
Issued by NWS Huntsville, AL

Home | Current Version | Previous Version | Text Only | Print | Product List | Glossary On
Versions: 1 2 3 4 5 6 7 8 9 10 11 12 13 14 15 16 17 18 19 20 21 22 23 24 25 26 27 28 29 30 31 32 33 34 35 36 37 38 39 40 41 42 43 44 45 46 47 48 49 50
000
ASUS44 KHUN 192010
RWRHUN

WEATHER ROUNDUP FOR THE TENNESSEE VALLEY
NATIONAL WEATHER SERVICE HUNTSVILLE AL
200 PM CST FRI DEC 19 2014

ALZ001>004-192100-
NORTHWEST ALABAMA

CITY           SKY/WX    TMP DP  RH WIND       PRES   REMARKS
SHOALS AIRPORT CLOUDY    44  32  62 N3        30.22F
SHOALS TVA RES   N/A     43 N/A N/A MISG        N/A
$$

ALZ005>007-016-192100-
NORTH CENTRAL ALABAMA

CITY           SKY/WX    TMP DP  RH WIND       PRES   REMARKS
DECATUR AP     CLOUDY    42  31  64 N7        30.21S
HUNTSVILLE AP  CLOUDY    44  31  60 N7        30.20R
HUN NWS/UAH      N/A     43  29  59 N7          N/A
MERIDIANVILLE  CLOUDY    41  28  60 NW7       30.20R
REDSTONE ARSN  CLOUDY    43  32  65 N8        30.19R
VINEMONT AP    FAIR      42  32  70 NW5       30.19S
$$

ALZ008>010-192100-
NORTHEAST ALABAMA

CITY           SKY/WX    TMP DP  RH WIND       PRES   REMARKS
ALBERTVILLE    CLOUDY    43  36  75 N7        30.15S
FORT PAYNE     CLOUDY    45  28  53 CALM      30.14S
SCOTTSBORO AP  CLOUDY    45  30  57 CALM      30.19R
VALLEY HEAD      N/A     45 N/A N/A MISG        N/A
$$

TNZ076-096-097-192100-
SOUTHEASTERN MIDDLE TENNESSEE

CITY           SKY/WX    TMP DP  RH WIND       PRES   REMARKS
TULLAHOMA      SUNNY     39  27  60 NW8       30.19S WCI  34
WINCHESTER     SUNNY     41  28  60 N7        30.19R
$$

...SURROUNDING SITES...

CITY           SKY/WX    TMP DP  RH WIND       PRES   REMARKS
ATLANTA        PTSUNNY   54  35  48 NW5       30.10F
ANNISTON       CLOUDY    50  34  54 N5        30.15F
BIRMINGHAM     CLOUDY    48  37  65 NW9       30.17S
CHATTANOOGA    CLOUDY    47  27  45 NE7       30.16S
CORINTH        CLOUDY    43  34  70 CALM      30.21F
DALTON         CLOUDY    45  32  61 CALM      30.15S
GADSDEN        CLOUDY    46  32  57 NW3       30.17S
GOLDEN TRNGL   PTSUNNY   48  37  66 N9        30.17F
HALEYVILLE     FAIR      41  34  76 N7        30.20F
JACKSON TN     CLOUDY    43  30  60 NE3       30.23F
LEWISBURG      CLOUDY    40  27  60 N5        30.22R
MEMPHIS        CLOUDY    45  34  65 NE6       30.21F
MURFREESBORO   FAIR      40  27  60 N7        30.22R
NASHVILLE      CLOUDY    41  27  57 N5        30.25R
OXFORD MS      CLOUDY    43  34  70 NE6       30.22S
ROME           CLOUDY    48  32  53 NW5       30.13F
SAVANNAH       CLOUDY    39  28  65 N5        30.23F
TUPELO         CLOUDY    46  37  71 NE9       30.20F
TUSCALOOSA     CLOUDY    49  36  61 NE6       30.16F
$$

...GULF COAST WEATHER...

CITY           SKY/WX    TMP DP  RH WIND       PRES   REMARKS
GULFPORT       RAIN      51  49  92 NE6       30.07S
PASCAGOULA     LGT RAIN  52  50  93 NE7       30.06F FOG
MOBILE         RAIN      52  44  74 E5        30.09S
GULF SHORES    CLOUDY    52  48  86 NE7       30.07F
PENSACOLA      CLOUDY    53  47  79 NE7       30.07F
DESTIN         CLOUDY    52  45  77 E9        30.08F
PANAMA CITY    PTSUNNY   56  47  72 NE7       30.08F
APPALACHICOLA  PTSUNNY   65  39  38 E9        30.07F
$$



USA.gov is the U.S. government's official web portal to all federal, state and local government web resources and services.